TAX80GM EGNT-LPPR

Flight info

Callsign TAX80GM
Flight time N/A
Altitude 39000
Route GIRLI P18 GASKO P16 RIBEL UP16 CROFT UL612 BARTN/N0464F410 UL612 HON DCT SITET UN859 LGL UT176 TERPO UN872 ERIGA DCT FUJTI DCT ATLEN DCT INSID T326 ASPOR
Aircraft A343/H-SDE2E3FGHIJ4J5M1RWXY/LB1D1

Departure

Time 2026-04-29 19:11
Airport Newcastle International Airport (EGNT)

Arrival

Time N/A
Airport Francisco de Sá Carneiro Airport (LPPR)
Time Latitude Longitude Altitude Speed Heading
2026-04-29 19:03 55.03811 -1.70874 266 ft 0 kts 92°
2026-04-29 19:04 55.03811 -1.70837 267 ft 6 kts 92°
2026-04-29 19:05 55.03808 -1.70747 266 ft 9 kts 94°
2026-04-29 19:05 55.03801 -1.70617 263 ft 12 kts 96°
2026-04-29 19:05 55.03797 -1.70545 263 ft 2 kts 95°
2026-04-29 19:05 55.03790 -1.70490 263 ft 6 kts 118°
2026-04-29 19:06 55.03753 -1.70449 265 ft 7 kts 168°
2026-04-29 19:06 55.03708 -1.70439 266 ft 6 kts 175°
2026-04-29 19:06 55.03634 -1.70454 269 ft 5 kts 205°
2026-04-29 19:07 55.03607 -1.70504 270 ft 7 kts 246°
2026-04-29 19:07 55.03595 -1.70567 270 ft 9 kts 254°
2026-04-29 19:07 55.03512 -1.70650 269 ft 12 kts 179°
2026-04-29 19:07 55.03503 -1.70650 269 ft 0 kts 179°
2026-04-29 19:08 55.03488 -1.70649 270 ft 4 kts 179°
2026-04-29 19:08 55.03452 -1.70648 270 ft 7 kts 179°
2026-04-29 19:08 55.03402 -1.70628 270 ft 7 kts 145°
2026-04-29 19:09 55.03386 -1.70545 269 ft 6 kts 81°
2026-04-29 19:09 55.03391 -1.70510 269 ft 4 kts 72°
2026-04-29 19:09 55.03397 -1.70481 269 ft 0 kts 69°
2026-04-29 19:09 55.03400 -1.70469 269 ft 2 kts 68°
2026-04-29 19:10 55.03401 -1.70466 269 ft 0 kts 67°
2026-04-29 19:10 55.03501 -1.70083 268 ft 80 kts 65°
2026-04-29 19:10 55.03857 -1.68747 259 ft 159 kts 65°
2026-04-29 19:10 55.04374 -1.66798 810 ft 182 kts 66°
2026-04-29 19:11 55.04906 -1.64793 1929 ft 182 kts 68°
2026-04-29 19:11 55.05448 -1.62831 2917 ft 182 kts 68°
2026-04-29 19:11 55.06020 -1.60755 3530 ft 198 kts 68°
2026-04-29 19:11 55.06471 -1.58431 4139 ft 206 kts 89°
2026-04-29 19:12 55.06174 -1.56010 4963 ft 206 kts 117°
2026-04-29 19:12 55.05224 -1.54138 5763 ft 213 kts 143°
2026-04-29 19:12 55.03762 -1.53255 6245 ft 239 kts 173°
2026-04-29 19:12 55.02625 -1.53218 6607 ft 253 kts 176°
2026-04-29 19:13 55.00188 -1.53231 7559 ft 267 kts 176°
2026-04-29 19:13 54.98320 -1.53352 8128 ft 272 kts 184°
2026-04-29 19:13 54.96483 -1.54306 8424 ft 281 kts 201°
2026-04-29 19:13 54.94763 -1.55963 8450 ft 283 kts 206°
2026-04-29 19:14 54.93077 -1.57733 8452 ft 283 kts 206°
2026-04-29 19:14 54.91397 -1.59508 8455 ft 283 kts 206°
2026-04-29 19:14 54.89713 -1.61273 8453 ft 283 kts 206°
2026-04-29 19:14 54.88027 -1.63024 8460 ft 283 kts 206°
2026-04-29 19:15 54.86339 -1.64772 8453 ft 282 kts 205°
2026-04-29 19:15 54.84654 -1.66504 8456 ft 281 kts 205°
2026-04-29 19:15 54.82971 -1.68228 8450 ft 281 kts 205°
2026-04-29 19:15 54.81191 -1.69690 8613 ft 287 kts 194°
2026-04-29 19:16 54.79295 -1.70779 9566 ft 285 kts 192°
2026-04-29 19:16 54.77447 -1.71810 10681 ft 282 kts 192°
2026-04-29 19:16 54.75556 -1.72891 11388 ft 293 kts 192°
2026-04-29 19:16 54.73704 -1.74007 12885 ft 236 kts 193°
2026-04-29 19:17 54.72401 -1.74966 15263 ft 178 kts 194°
2026-04-29 19:17 54.71314 -1.75876 15889 ft 190 kts 195°
2026-04-29 19:17 54.69852 -1.77005 15007 ft 267 kts 196°
2026-04-29 19:17 54.67946 -1.78051 14922 ft 300 kts 187°
2026-04-29 19:18 54.65870 -1.78892 15488 ft 314 kts 188°
2026-04-29 19:18 54.64410 -1.79533 15792 ft 327 kts 189°
2026-04-29 19:18 54.61400 -1.81017 16347 ft 352 kts 192°
2026-04-29 19:18 54.58995 -1.82304 16739 ft 371 kts 192°
2026-04-29 19:19 54.56472 -1.83691 17117 ft 389 kts 193°
2026-04-29 19:19 54.53844 -1.85149 17645 ft 402 kts 193°
2026-04-29 19:19 54.51164 -1.86640 18465 ft 407 kts 194°
2026-04-29 19:19 54.48457 -1.88142 19244 ft 411 kts 194°
2026-04-29 19:20 54.45724 -1.89652 20046 ft 414 kts 194°
2026-04-29 19:20 54.42966 -1.91174 20770 ft 418 kts 194°
2026-04-29 19:20 54.40185 -1.92706 21416 ft 422 kts 194°
2026-04-29 19:20 54.37372 -1.94252 22042 ft 426 kts 194°
2026-04-29 19:21 54.34537 -1.95807 22665 ft 430 kts 194°
2026-04-29 19:21 54.31668 -1.97361 23285 ft 433 kts 193°
2026-04-29 19:21 54.28731 -1.98547 23899 ft 435 kts 187°
2026-04-29 19:21 54.25726 -1.99261 24433 ft 436 kts 182°
2026-04-29 19:22 54.22729 -1.99543 24963 ft 438 kts 179°
2026-04-29 19:22 54.19677 -1.99714 25510 ft 440 kts 179°
2026-04-29 19:22 54.16601 -1.99871 26052 ft 443 kts 179°
2026-04-29 19:22 54.13512 -2.00030 26572 ft 446 kts 179°
2026-04-29 19:23 54.10401 -2.00193 27103 ft 449 kts 179°
2026-04-29 19:23 54.07276 -2.00360 27625 ft 451 kts 179°
2026-04-29 19:23 54.04125 -2.00530 28148 ft 454 kts 179°
2026-04-29 19:23 54.00959 -2.00701 28637 ft 457 kts 179°
2026-04-29 19:24 53.97773 -2.00875 29174 ft 459 kts 180°
2026-04-29 19:24 53.94588 -2.01057 29869 ft 457 kts 180°
2026-04-29 19:24 53.91417 -2.01241 30607 ft 454 kts 180°
2026-04-29 19:24 53.88273 -2.01425 31253 ft 451 kts 180°
2026-04-29 19:25 53.85146 -2.01609 31899 ft 448 kts 179°
2026-04-29 19:25 53.82036 -2.01790 32549 ft 445 kts 179°
2026-04-29 19:25 53.78953 -2.01967 33196 ft 443 kts 179°
2026-04-29 19:25 53.75882 -2.02141 33825 ft 440 kts 179°
2026-04-29 19:26 53.72828 -2.02314 34446 ft 437 kts 179°
2026-04-29 19:26 53.69814 -2.02483 34951 ft 435 kts 178°
2026-04-29 19:26 53.66757 -2.02652 35406 ft 435 kts 178°
2026-04-29 19:26 53.63714 -2.02821 35815 ft 435 kts 178°
2026-04-29 19:27 53.60726 -2.02988 36155 ft 436 kts 178°
2026-04-29 19:27 53.57684 -2.03158 36459 ft 438 kts 178°
2026-04-29 19:27 53.54631 -2.03329 36756 ft 440 kts 178°
2026-04-29 19:27 53.51561 -2.03501 37033 ft 442 kts 179°
2026-04-29 19:28 53.48483 -2.03674 37315 ft 443 kts 178°
2026-04-29 19:28 53.42288 -2.04021 37346 ft 445 kts 179°
2026-04-29 19:29 53.36091 -2.04369 37348 ft 445 kts 179°
2026-04-29 19:29 53.29899 -2.04713 37349 ft 445 kts 179°
2026-04-29 19:30 53.23706 -2.05053 37356 ft 444 kts 179°
2026-04-29 19:30 53.17514 -2.05395 37349 ft 446 kts 179°
2026-04-29 19:31 53.11314 -2.05741 37342 ft 446 kts 179°
2026-04-29 19:31 53.05150 -2.06082 37342 ft 446 kts 179°
2026-04-29 19:32 52.98950 -2.06423 37345 ft 446 kts 179°
2026-04-29 19:32 52.92703 -2.06763 37327 ft 450 kts 179°
2026-04-29 19:33 52.86440 -2.07105 37325 ft 450 kts 179°
2026-04-29 19:33 52.80178 -2.07446 37323 ft 450 kts 179°
2026-04-29 19:34 52.73912 -2.07786 37321 ft 451 kts 179°
2026-04-29 19:34 52.67625 -2.08123 37313 ft 453 kts 179°
2026-04-29 19:35 52.61326 -2.08465 37301 ft 453 kts 179°
2026-04-29 19:35 52.55034 -2.08803 37298 ft 453 kts 179°
2026-04-29 19:36 52.48731 -2.09139 37304 ft 454 kts 179°
2026-04-29 19:36 52.42398 -2.09476 37291 ft 456 kts 179°
2026-04-29 19:37 52.36060 -2.09815 37282 ft 456 kts 179°
2026-04-29 19:37 52.29722 -2.10155 37282 ft 456 kts 179°
2026-04-29 19:38 52.23425 -2.10488 37274 ft 456 kts 180°
2026-04-29 19:38 52.17073 -2.10824 37272 ft 457 kts 180°
2026-04-29 19:39 52.10717 -2.11160 37267 ft 457 kts 180°
2026-04-29 19:39 52.04366 -2.11494 37263 ft 457 kts 180°
2026-04-29 19:40 51.98027 -2.11827 37238 ft 456 kts 180°
2026-04-29 19:40 51.91668 -2.12157 37240 ft 457 kts 180°
2026-04-29 19:41 51.85319 -2.12491 37238 ft 456 kts 180°
2026-04-29 19:41 51.78971 -2.12819 37245 ft 457 kts 180°
2026-04-29 19:42 51.72627 -2.13143 37236 ft 455 kts 180°
2026-04-29 19:42 51.66283 -2.13472 37233 ft 456 kts 180°
2026-04-29 19:43 51.59949 -2.13804 37223 ft 455 kts 180°
2026-04-29 19:43 51.53606 -2.14126 37227 ft 456 kts 180°
2026-04-29 19:44 51.47280 -2.14450 37211 ft 454 kts 180°
2026-04-29 19:44 51.40996 -2.14774 37202 ft 455 kts 180°
2026-04-29 19:45 51.34678 -2.15097 37203 ft 454 kts 180°
2026-04-29 19:45 51.28361 -2.15410 37199 ft 452 kts 181°
2026-04-29 19:46 51.22102 -2.15729 37194 ft 450 kts 181°
2026-04-29 19:46 51.15819 -2.16047 37189 ft 451 kts 181°
2026-04-29 19:47 51.09563 -2.16365 37183 ft 450 kts 181°
2026-04-29 19:47 51.03293 -2.16679 37173 ft 451 kts 181°
2026-04-29 19:48 50.97039 -2.16993 37176 ft 450 kts 181°
2026-04-29 19:48 50.90771 -2.17305 37166 ft 451 kts 180°
2026-04-29 19:49 50.84512 -2.17617 37168 ft 450 kts 181°
2026-04-29 19:49 50.79305 -2.17873 37162 ft 450 kts 181°
2026-04-29 19:50 50.72039 -2.18237 37147 ft 449 kts 181°
2026-04-29 19:50 50.65777 -2.18548 37140 ft 450 kts 181°
2026-04-29 19:51 50.60544 -2.18804 37146 ft 448 kts 181°
2026-04-29 19:51 50.54315 -2.19110 37132 ft 447 kts 181°
2026-04-29 19:52 50.48163 -2.19414 37125 ft 445 kts 181°
2026-04-29 19:52 50.41933 -2.19719 37125 ft 447 kts 181°
2026-04-29 19:53 50.35736 -2.20018 37117 ft 443 kts 181°
2026-04-29 19:53 50.29555 -2.20320 37107 ft 445 kts 181°
2026-04-29 19:54 50.20311 -2.20768 37100 ft 445 kts 181°
2026-04-29 19:54 50.14128 -2.21067 37102 ft 443 kts 181°
2026-04-29 19:55 50.07977 -2.21366 37088 ft 449 kts 181°
2026-04-29 19:55 50.01751 -2.21667 37078 ft 445 kts 181°
2026-04-29 19:56 49.95545 -2.21964 37082 ft 449 kts 181°
2026-04-29 19:56 49.89317 -2.22261 37080 ft 444 kts 182°
2026-04-29 19:57 49.83112 -2.22557 37066 ft 447 kts 182°
2026-04-29 19:57 49.76892 -2.22853 37059 ft 445 kts 182°
2026-04-29 19:58 49.70696 -2.23148 37044 ft 449 kts 182°
2026-04-29 19:58 49.64452 -2.23445 37054 ft 446 kts 182°
2026-04-29 19:59 49.58234 -2.23740 37034 ft 449 kts 182°
2026-04-29 19:59 49.51996 -2.24036 37058 ft 445 kts 181°
2026-04-29 20:00 49.45796 -2.24326 37041 ft 448 kts 181°
2026-04-29 20:00 49.39614 -2.24614 37037 ft 445 kts 181°
2026-04-29 20:01 49.33406 -2.24904 37036 ft 449 kts 181°
2026-04-29 20:01 49.27163 -2.25197 37029 ft 447 kts 181°
2026-04-29 20:02 49.20935 -2.25486 37011 ft 449 kts 181°
2026-04-29 20:02 49.15746 -2.25728 37024 ft 447 kts 181°
2026-04-29 20:03 49.08516 -2.26063 37012 ft 448 kts 181°
2026-04-29 20:03 49.02268 -2.26347 37020 ft 450 kts 182°
2026-04-29 20:04 48.95998 -2.26638 37002 ft 451 kts 182°
2026-04-29 20:04 48.89718 -2.26927 36996 ft 451 kts 182°
2026-04-29 20:05 48.83438 -2.27216 36989 ft 452 kts 182°
2026-04-29 20:05 48.77161 -2.27504 36986 ft 451 kts 182°
2026-04-29 20:06 48.70884 -2.27789 36995 ft 451 kts 182°
2026-04-29 20:06 48.64609 -2.28074 36997 ft 451 kts 182°
2026-04-29 20:07 48.58330 -2.28360 36991 ft 451 kts 182°
2026-04-29 20:07 48.52093 -2.28643 36985 ft 452 kts 182°
2026-04-29 20:08 48.46833 -2.28880 36972 ft 451 kts 182°
2026-04-29 20:08 48.39531 -2.29208 36970 ft 450 kts 182°
2026-04-29 20:09 48.33277 -2.29491 36970 ft 449 kts 182°
2026-04-29 20:09 48.27032 -2.29773 36967 ft 449 kts 182°
2026-04-29 20:10 48.20791 -2.30053 36963 ft 449 kts 182°
2026-04-29 20:10 48.14550 -2.30332 36961 ft 449 kts 182°
2026-04-29 20:11 48.08309 -2.30609 36953 ft 449 kts 182°
2026-04-29 20:11 48.02068 -2.30887 36951 ft 449 kts 182°
2026-04-29 20:12 47.95828 -2.31162 36960 ft 449 kts 182°
2026-04-29 20:12 47.89616 -2.31437 36953 ft 449 kts 182°
2026-04-29 20:13 47.83366 -2.31712 36955 ft 449 kts 182°
2026-04-29 20:13 47.77118 -2.31986 36950 ft 449 kts 182°
2026-04-29 20:14 47.70869 -2.32259 36960 ft 449 kts 182°
2026-04-29 20:14 47.64619 -2.32532 36949 ft 449 kts 182°
2026-04-29 20:15 47.58370 -2.32806 36939 ft 449 kts 182°
2026-04-29 20:15 47.52120 -2.33078 36934 ft 449 kts 182°
2026-04-29 20:16 47.45866 -2.33350 36945 ft 449 kts 182°
2026-04-29 20:16 47.39611 -2.33620 36935 ft 449 kts 182°
2026-04-29 20:17 47.33401 -2.33900 36943 ft 450 kts 182°
2026-04-29 20:17 47.27145 -2.34225 36935 ft 450 kts 182°
2026-04-29 20:18 47.20884 -2.34549 36943 ft 450 kts 182°
2026-04-29 20:18 47.14625 -2.34869 36932 ft 450 kts 182°
2026-04-29 20:19 47.08356 -2.35187 36933 ft 450 kts 182°
2026-04-29 20:19 47.02092 -2.35504 36933 ft 450 kts 182°
2026-04-29 20:20 46.95831 -2.35838 36930 ft 450 kts 184°
2026-04-29 20:20 46.89664 -2.37050 36930 ft 451 kts 192°
2026-04-29 20:21 46.83649 -2.39607 36941 ft 451 kts 200°
2026-04-29 20:21 46.77950 -2.43451 36945 ft 452 kts 208°
2026-04-29 20:22 46.72552 -2.48121 36939 ft 449 kts 210°
2026-04-29 20:22 46.67195 -2.52794 36934 ft 449 kts 210°
2026-04-29 20:23 46.61828 -2.57469 36938 ft 449 kts 210°
2026-04-29 20:23 46.56474 -2.62124 36934 ft 449 kts 210°
2026-04-29 20:24 46.51102 -2.66782 36929 ft 450 kts 210°
2026-04-29 20:24 46.45759 -2.71405 36931 ft 450 kts 210°
2026-04-29 20:25 46.40373 -2.76056 36927 ft 450 kts 210°
2026-04-29 20:25 46.34989 -2.80691 36948 ft 450 kts 210°
2026-04-29 20:26 46.29609 -2.85359 36928 ft 451 kts 211°
2026-04-29 20:26 46.24465 -2.90615 36923 ft 453 kts 217°
2026-04-29 20:27 46.20444 -2.95465 36918 ft 453 kts 218°
2026-04-29 20:27 46.14805 -3.02332 36917 ft 453 kts 218°
2026-04-29 20:28 46.09979 -3.08194 36915 ft 453 kts 218°
2026-04-29 20:28 46.05155 -3.14047 36914 ft 453 kts 218°
2026-04-29 20:29 46.00333 -3.19891 36926 ft 452 kts 218°
2026-04-29 20:29 45.95528 -3.25695 36911 ft 451 kts 218°
2026-04-29 20:30 45.90716 -3.31492 36909 ft 451 kts 218°
2026-04-29 20:30 45.85905 -3.37277 36906 ft 451 kts 218°
2026-04-29 20:31 45.81092 -3.43053 36906 ft 451 kts 218°
2026-04-29 20:31 45.76307 -3.48779 36903 ft 451 kts 218°
2026-04-29 20:32 45.71488 -3.54537 36913 ft 451 kts 218°
2026-04-29 20:32 45.67447 -3.59353 36904 ft 451 kts 218°
2026-04-29 20:33 45.61837 -3.66021 36896 ft 451 kts 218°
2026-04-29 20:33 45.57009 -3.71745 36896 ft 451 kts 218°
2026-04-29 20:34 45.52175 -3.77464 36892 ft 451 kts 218°
2026-04-29 20:34 45.47338 -3.83172 36891 ft 451 kts 218°